When you browse on this site, cookies collect data to enhance your experience and personalize the content and advertising you see.
Visit our Privacy Policy to learn more. By continuing to use the site, you agree to this use of cookies and data.
  • En España
  • Lista de países
  • Para 7 días
  • Temperatura del agua
  • El tiempo en el mapa
  • Informadores
  • user-avatar
    Iniciar sesión

    Tiempo cada hora Koimbra

    Hoy, 7 Junio, Domingo

    Tiempo Temperatura Precipitaciones Viento Presión Humedad
    00:00 +14°C° 0 mm 1 mps 751 mmHg 94%
    01:00 +14°C° 0 mm 1 mps 750 mmHg 95%
    02:00 +13°C° 0 mm 1 mps 750 mmHg 95%
    03:00 +14°C° 0 mm 1 mps 751 mmHg 94%
    04:00 +14°C° 0 mm 1 mps 751 mmHg 93%
    05:00 +15°C° 0 mm 1 mps 751 mmHg 91%
    06:00 +16°C° 0 mm 1 mps 751 mmHg 86%
    07:00 +17°C° 0 mm 2 mps 751 mmHg 81%
    08:00 +19°C° 0 mm 3 mps 752 mmHg 76%
    09:00 +19°C° 0.1 mm 3 mps 752 mmHg 70%
    10:00 +20°C° 0.1 mm 4 mps 752 mmHg 65%
    11:00 +21°C° 0.1 mm 4 mps 752 mmHg 60%
    12:00 +21°C° 0 mm 5 mps 752 mmHg 58%
    13:00 +21°C° 0 mm 5 mps 752 mmHg 56%
    14:00 +21°C° 0 mm 5 mps 751 mmHg 54%
    15:00 +20°C° 0 mm 5 mps 752 mmHg 56%
    16:00 +20°C° 0 mm 5 mps 752 mmHg 58%
    17:00 +19°C° 0 mm 5 mps 752 mmHg 60%
    18:00 +17°C° 0 mm 4 mps 752 mmHg 69%
    19:00 +14°C° 0 mm 3 mps 753 mmHg 78%
    20:00 +13°C° 0 mm 2 mps 753 mmHg 87%
    21:00 +13°C° 0 mm 2 mps 753 mmHg 88%
    22:00 +13°C° 0 mm 2 mps 753 mmHg 90%
    23:00 +13°C° 0 mm 2 mps 753 mmHg 91%

    Mañana, 8 Junio, Lunes

    Tiempo Temperatura Precipitaciones Viento Presión Humedad
    00:00 +12°C° 0 mm 2 mps 753 mmHg 91%
    01:00 +12°C° 0 mm 2 mps 753 mmHg 92%
    02:00 +12°C° 0 mm 2 mps 753 mmHg 93%
    03:00 +12°C° 0 mm 1 mps 753 mmHg 92%
    04:00 +12°C° 0 mm 1 mps 753 mmHg 91%
    05:00 +12°C° 0 mm 1 mps 753 mmHg 90%
    06:00 +14°C° 0 mm 2 mps 754 mmHg 77%
    07:00 +17°C° 0 mm 2 mps 754 mmHg 64%
    08:00 +20°C° 0 mm 3 mps 754 mmHg 50%
    09:00 +21°C° 0 mm 3 mps 754 mmHg 46%
    10:00 +22°C° 0 mm 3 mps 754 mmHg 43%
    11:00 +25°C° 0 mm 4 mps 754 mmHg 39%
    12:00 +25°C° 0 mm 4 mps 754 mmHg 40%
    13:00 +25°C° 0 mm 5 mps 754 mmHg 41%
    14:00 +25°C° 0 mm 5 mps 754 mmHg 42%
    15:00 +23°C° 0 mm 5 mps 753 mmHg 46%
    16:00 +22°C° 0 mm 5 mps 753 mmHg 51%
    17:00 +21°C° 0 mm 5 mps 753 mmHg 56%
    18:00 +19°C° 0 mm 4 mps 754 mmHg 65%
    19:00 +17°C° 0 mm 3 mps 754 mmHg 74%
    20:00 +15°C° 0 mm 2 mps 754 mmHg 83%
    21:00 +15°C° 0 mm 2 mps 755 mmHg 85%
    22:00 +14°C° 0 mm 1 mps 755 mmHg 88%
    23:00 +14°C° 0 mm 1 mps 755 mmHg 90%

    Pasado mañana, 9 Junio, Martes

    Tiempo Temperatura Precipitaciones Viento Presión Humedad
    00:00 +14°C° 0 mm 1 mps 755 mmHg 90%
    01:00 +13°C° 0 mm 1 mps 755 mmHg 90%
    02:00 +13°C° 0 mm 1 mps 755 mmHg 89%
    03:00 +13°C° 0 mm 1 mps 755 mmHg 87%
    04:00 +14°C° 0 mm 1 mps 755 mmHg 85%
    05:00 +14°C° 0 mm 1 mps 755 mmHg 83%
    06:00 +18°C° 0 mm 1 mps 755 mmHg 72%
    07:00 +20°C° 0 mm 1 mps 755 mmHg 60%
    08:00 +23°C° 0 mm 1 mps 756 mmHg 48%
    09:00 +25°C° 0 mm 2 mps 755 mmHg 44%
    10:00 +26°C° 0 mm 2 mps 755 mmHg 40%
    11:00 +28°C° 0 mm 2 mps 755 mmHg 35%
    12:00 +27°C° 0 mm 3 mps 755 mmHg 37%
    13:00 +27°C° 0 mm 4 mps 755 mmHg 39%
    14:00 +26°C° 0 mm 5 mps 755 mmHg 40%
    15:00 +25°C° 0 mm 4 mps 754 mmHg 45%
    16:00 +23°C° 0 mm 4 mps 754 mmHg 49%
    17:00 +22°C° 0 mm 4 mps 754 mmHg 53%
    18:00 +20°C° 0 mm 3 mps 755 mmHg 63%
    19:00 +18°C° 0 mm 2 mps 755 mmHg 73%
    20:00 +16°C° 0 mm 1 mps 755 mmHg 83%
    21:00 +15°C° 0 mm 1 mps 755 mmHg 84%
    22:00 +15°C° 0 mm 1 mps 755 mmHg 85%
    23:00 +15°C° 0 mm 1 mps 756 mmHg 86%

    10 Junio, Miércoles

    Tiempo Temperatura Precipitaciones Viento Presión Humedad
    00:00 +15°C° 0 mm 1 mps 756 mmHg 86%
    01:00 +14°C° 0 mm 1 mps 755 mmHg 86%
    02:00 +14°C° 0 mm 1 mps 755 mmHg 85%
    03:00 +15°C° 0 mm 1 mps 755 mmHg 83%
    04:00 +15°C° 0 mm 1 mps 755 mmHg 81%
    05:00 +15°C° 0 mm 1 mps 755 mmHg 78%
    06:00 +19°C° 0 mm 1 mps 756 mmHg 66%
    07:00 +22°C° 0 mm 1 mps 756 mmHg 54%
    08:00 +25°C° 0 mm 1 mps 756 mmHg 41%
    09:00 +27°C° 0 mm 1 mps 756 mmHg 38%
    10:00 +28°C° 0 mm 2 mps 756 mmHg 35%
    11:00 +30°C° 0 mm 2 mps 756 mmHg 31%
    12:00 +29°C° 0 mm 3 mps 755 mmHg 34%
    13:00 +29°C° 0 mm 4 mps 755 mmHg 37%
    14:00 +28°C° 0 mm 5 mps 755 mmHg 39%
    15:00 +27°C° 0 mm 5 mps 755 mmHg 44%
    16:00 +25°C° 0 mm 4 mps 754 mmHg 49%
    17:00 +23°C° 0 mm 4 mps 754 mmHg 53%
    18:00 +21°C° 0 mm 3 mps 755 mmHg 64%
    19:00 +18°C° 0 mm 2 mps 755 mmHg 75%
    20:00 +16°C° 0 mm 1 mps 755 mmHg 86%
    21:00 +16°C° 0 mm 1 mps 755 mmHg 88%
    22:00 +15°C° 0 mm 1 mps 755 mmHg 90%
    23:00 +15°C° 0 mm 1 mps 755 mmHg 92%

    11 Junio, Jueves

    Tiempo Temperatura Precipitaciones Viento Presión Humedad
    00:00 +14°C° 0 mm 1 mps 755 mmHg 93%
    01:00 +14°C° 0 mm 1 mps 754 mmHg 93%
    02:00 +14°C° 0 mm 1 mps 754 mmHg 94%
    03:00 +14°C° 0 mm 1 mps 754 mmHg 93%
    04:00 +14°C° 0 mm 1 mps 754 mmHg 92%
    05:00 +15°C° 0 mm 1 mps 754 mmHg 91%
    06:00 +18°C° 0 mm 1 mps 754 mmHg 78%
    07:00 +20°C° 0 mm 2 mps 754 mmHg 66%
    08:00 +23°C° 0 mm 2 mps 754 mmHg 54%
    09:00 +24°C° 0 mm 3 mps 753 mmHg 50%
    10:00 +25°C° 0 mm 4 mps 753 mmHg 46%
    11:00 +26°C° 0 mm 5 mps 753 mmHg 42%
    12:00 +26°C° 0 mm 6 mps 752 mmHg 46%
    13:00 +26°C° 0 mm 6 mps 752 mmHg 49%
    14:00 +24°C° 0 mm 7 mps 751 mmHg 53%
    15:00 +23°C° 0 mm 6 mps 751 mmHg 58%
    16:00 +22°C° 0 mm 6 mps 750 mmHg 62%
    17:00 +21°C° 0 mm 6 mps 750 mmHg 67%
    18:00 +19°C° 0 mm 5 mps 750 mmHg 74%
    19:00 +17°C° 0 mm 4 mps 751 mmHg 80%
    20:00 +15°C° 0 mm 4 mps 751 mmHg 86%
    21:00 +14°C° 0 mm 3 mps 751 mmHg 86%
    22:00 +14°C° 0 mm 3 mps 751 mmHg 85%
    23:00 +13°C° 0 mm 3 mps 751 mmHg 85%

    12 Junio, Viernes

    Tiempo Temperatura Precipitaciones Viento Presión Humedad
    00:00 +12°C° 0 mm 3 mps 751 mmHg 86%
    01:00 +13°C° 0 mm 2 mps 751 mmHg 86%
    02:00 +12°C° 0 mm 2 mps 751 mmHg 87%
    03:00 +12°C° 0 mm 2 mps 751 mmHg 85%
    04:00 +11°C° 0 mm 3 mps 751 mmHg 84%
    05:00 +11°C° 0 mm 3 mps 752 mmHg 82%
    06:00 +13°C° 0 mm 3 mps 752 mmHg 71%
    07:00 +17°C° 0 mm 3 mps 752 mmHg 59%
    08:00 +19°C° 0 mm 4 mps 752 mmHg 48%
    09:00 +20°C° 0 mm 4 mps 752 mmHg 45%
    10:00 +21°C° 0 mm 5 mps 752 mmHg 42%
    11:00 +22°C° 0 mm 5 mps 752 mmHg 39%
    12:00 +22°C° 0 mm 5 mps 752 mmHg 42%
    13:00 +22°C° 0 mm 6 mps 752 mmHg 44%
    14:00 +22°C° 0 mm 6 mps 752 mmHg 47%
    15:00 +21°C° 0 mm 6 mps 752 mmHg 51%
    16:00 +20°C° 0 mm 6 mps 752 mmHg 55%
    17:00 +19°C° 0 mm 5 mps 752 mmHg 60%
    18:00 +17°C° 0 mm 4 mps 753 mmHg 69%
    19:00 +16°C° 0 mm 3 mps 753 mmHg 77%
    20:00 +14°C° 0 mm 2 mps 754 mmHg 86%
    21:00 +13°C° 0 mm 2 mps 754 mmHg 89%
    22:00 +13°C° 0 mm 1 mps 754 mmHg 92%
    23:00 +13°C° 0 mm 1 mps 754 mmHg 95%
    Mostrar más